Date_and_time,latitude,longitude,wind_speed,RelWindDirFrom,WindDirFrom,air_pressure,air_temperature,relative_humidity,Temp,platform_speed_wrt_ground,air_pressure_at_mean_sea_level,platform_orientation
2019-10-26 23:40,50.6304116666667,-96.9807533333333,11.3,16.9,278,978.32,4.1,75,5.61,0.0,1005.44,360.0
2019-10-26 23:50,50.630415,-96.98076,10.6,17.6,282,978.36,4.0,75,5.61,0.0,1005.49,360.0
2019-10-27 00:00,50.6304166666667,-96.9807616666667,9.0,13.9,288,978.47,4.0,75,5.62,0.0,1005.62,360.0
2019-10-27 00:10,50.63042,-96.98076,12.1,23.1,293,978.44,4.1,74,5.62,0.0,1005.59,360.0
2019-10-27 00:20,50.63044,-96.9807666666667,13.3,20.5,291,978.94,4.1,72,5.62,0.0,1006.10,360.0
2019-10-27 00:30,50.630435,-96.98077,11.2,18.2,293,979.27,4.1,72,5.62,0.0,1006.45,360.0
2019-10-27 00:40,50.6304366666667,-96.9807666666667,9.5,16.5,286,979.68,4.1,72,5.63,0.0,1006.87,360.0
2019-10-27 00:50,50.6304333333333,-96.9807666666667,10.9,18.0,281,979.70,4.0,75,5.63,0.0,1006.91,360.0
2019-10-27 01:00,50.63043,-96.9807666666667,12.2,19.1,282,979.66,3.7,79,5.62,0.0,1006.88,38.0
2019-10-27 01:10,50.6304283333333,-96.9807683333333,11.4,16.4,285,979.77,3.6,79,5.62,0.0,1007.00,38.0
2019-10-27 01:20,50.63043,-96.9807683333333,9.1,15.0,286,980.10,3.6,81,5.62,0.0,1007.35,38.0
2019-10-27 01:30,50.63043,-96.9807683333333,10.3,18.5,280,980.23,3.4,84,5.61,0.0,1007.50,38.0
2019-10-27 01:40,50.6304383333333,-96.9807683333333,9.1,14.0,277,980.41,3.3,85,5.61,0.0,1007.69,38.0
2019-10-27 01:50,50.6304116666667,-96.9807516666667,9.0,16.9,276,980.41,3.2,86,5.62,0.0,1007.70,38.0
2019-10-27 02:00,50.6304266666667,-96.980755,10.5,16.6,284,980.40,3.1,86,5.63,0.0,1007.69,360.0
2019-10-27 02:10,50.6304283333333,-96.9807616666667,10.9,18.0,289,980.63,3.1,85,5.63,0.0,1007.92,360.0
2019-10-27 02:20,50.630425,-96.9807616666667,9.7,15.5,283,980.89,3.0,85,5.61,0.0,1008.20,360.0
2019-10-27 02:30,50.6304233333333,-96.98076,10.8,16.5,283,980.74,3.0,83,5.59,0.0,1008.05,360.0
2019-10-27 02:40,50.6304116666667,-96.9807633333333,10.3,19.3,286,980.91,3.1,81,5.58,0.0,1008.22,360.0
2019-10-27 02:50,50.6304233333333,-96.9807633333333,10.8,18.5,287,981.09,3.0,80,5.58,0.0,1008.42,360.0
2019-10-27 03:00,50.6304516666667,-96.9807866666667,10.2,16.0,289,981.04,3.0,80,5.56,0.0,1008.38,338.7
2019-10-27 03:10,50.6304316666667,-96.9807683333333,9.7,16.5,281,981.31,2.9,81,5.55,0.0,1008.66,338.7
2019-10-27 03:20,50.6304283333333,-96.9807666666667,9.5,14.2,289,981.47,2.9,80,5.54,0.0,1008.83,338.7
2019-10-27 03:30,50.6304233333333,-96.98076,9.4,15.5,287,981.63,2.9,80,5.52,0.0,1009.00,338.7
2019-10-27 03:40,50.6304383333333,-96.98076,8.9,14.1,285,981.69,2.8,81,5.53,0.0,1009.07,338.7
2019-10-27 03:50,50.63043,-96.9807616666667,8.7,14.3,281,981.85,2.8,82,5.56,0.0,1009.25,338.7
2019-10-27 04:00,50.6304516666667,-96.9807266666667,9.8,17.7,283,981.86,2.8,81,5.58,0.0,1009.26,33.4
2019-10-27 04:10,50.6304133333333,-96.9807616666667,10.1,14.7,282,982.03,2.8,81,5.57,0.0,1009.44,33.4
2019-10-27 04:20,50.6304333333333,-96.9807716666667,10.2,15.4,278,982.22,2.5,83,5.55,0.0,1009.64,33.4
2019-10-27 04:30,50.630425,-96.9807616666667,9.2,16.2,285,982.31,2.5,82,5.53,0.0,1009.73,33.4
2019-10-27 04:40,50.6304316666667,-96.980765,8.8,13.9,289,982.35,2.4,81,5.52,0.0,1009.78,33.4
2019-10-27 04:50,50.6304316666667,-96.9807633333333,8.5,13.8,284,982.23,2.2,87,5.51,0.0,1009.68,33.4
2019-10-27 05:00,50.6304333333333,-96.9807616666667,10.0,15.7,291,982.15,2.0,89,5.49,0.0,1009.60,360.0
2019-10-27 05:10,50.6304333333333,-96.9807583333333,8.4,15.2,286,982.71,2.0,88,5.48,0.0,1010.18,360.0
2019-10-27 05:20,50.6304416666667,-96.9807766666667,9.5,18.2,289,982.79,2.1,85,5.48,0.0,1010.26,360.0
2019-10-27 05:30,50.63044,-96.9807616666667,11.7,18.5,292,982.61,2.1,84,5.49,0.0,1010.08,360.0
2019-10-27 05:40,50.630435,-96.9807566666667,9.3,15.6,295,982.60,2.0,84,5.50,0.0,1010.07,360.0
2019-10-27 05:50,50.6304333333333,-96.9807566666667,8.6,14.4,291,982.67,2.0,84,5.52,0.0,1010.14,360.0
2019-10-27 06:00,50.6304316666667,-96.9807566666667,8.3,13.2,290,982.71,1.9,84,5.53,0.0,1010.19,136.2
2019-10-27 06:10,50.6304333333333,-96.9807583333333,8.1,15.6,287,982.56,1.9,84,5.52,0.0,1010.05,136.2
2019-10-27 06:20,50.6304333333333,-96.98076,11.1,18.5,290,982.59,1.8,82,5.52,0.0,1010.09,136.2
2019-10-27 06:30,50.6304333333333,-96.98076,10.1,17.0,296,982.58,1.8,81,5.52,0.0,1010.08,136.2
2019-10-27 06:40,50.630425,-96.9807683333333,9.2,14.3,285,982.69,1.7,82,5.53,0.0,1010.21,136.2
2019-10-27 06:50,50.63043,-96.9807683333333,10.5,15.9,296,982.49,1.6,81,5.53,0.0,1010.02,136.2
2019-10-27 07:00,50.630435,-96.98076,10.4,18.6,286,982.46,1.4,84,5.52,0.0,1010.00,223.0
2019-10-27 07:10,50.630435,-96.98076,9.1,15.3,279,982.75,1.0,87,5.52,0.0,1010.31,223.0
2019-10-27 07:20,50.6304133333333,-96.9807666666667,9.8,15.3,290,982.83,1.0,86,5.52,0.0,1010.40,223.0
2019-10-27 07:30,50.630425,-96.98076,9.4,14.9,289,983.01,0.9,85,5.52,0.0,1010.58,223.0
2019-10-27 07:40,50.6304216666667,-96.9807583333333,8.9,15.2,290,983.09,1.0,85,5.52,0.0,1010.67,223.0
2019-10-27 07:50,50.6304116666667,-96.9807633333333,9.6,16.5,282,983.28,0.9,85,5.52,0.0,1010.87,223.0
2019-10-27 08:00,50.630415,-96.9807683333333,8.3,13.5,273,983.56,0.9,86,5.52,0.0,1011.17,360.0
2019-10-27 08:10,50.630415,-96.9807666666667,10.8,18.6,277,983.64,0.7,86,5.51,0.0,1011.26,360.0
2019-10-27 08:20,50.6304166666667,-96.98076,9.6,15.8,276,983.68,0.6,86,5.52,0.0,1011.30,360.0
2019-10-27 08:30,50.63042,-96.98076,11.4,17.4,280,983.57,0.6,84,5.52,0.0,1011.19,360.0
2019-10-27 08:40,50.6304216666667,-96.98076,9.5,14.8,276,983.84,0.6,82,5.51,0.0,1011.47,360.0
2019-10-27 08:50,50.6304233333333,-96.9807616666667,9.6,15.0,275,984.02,0.7,81,5.50,0.0,1011.68,360.0
2019-10-27 09:00,50.6304233333333,-96.9807633333333,8.3,16.8,269,984.21,0.6,82,5.46,0.0,1011.89,228.3
2019-10-27 09:10,50.6304233333333,-96.980765,10.5,17.7,280,984.15,0.6,81,5.44,0.0,1011.83,228.3
2019-10-27 09:20,50.6304233333333,-96.9807666666667,10.1,18.2,277,984.15,0.5,80,5.44,0.0,1011.83,228.3
2019-10-27 09:30,50.6304233333333,-96.9807666666667,11.8,18.2,281,984.11,0.5,79,5.43,0.0,1011.80,228.3
2019-10-27 09:40,50.6304233333333,-96.980765,9.9,15.6,280,984.18,0.4,79,5.41,0.0,1011.87,228.3
2019-10-27 09:50,50.6304233333333,-96.980765,11.7,20.1,284,984.13,0.3,78,5.39,0.0,1011.83,228.3
2019-10-27 10:00,50.6304333333333,-96.9808183333333,8.6,15.1,284,984.44,0.2,78,5.37,0.0,1012.16,262.2
2019-10-27 10:10,50.6304283333333,-96.9807716666667,10.4,15.8,279,984.48,0.1,77,5.39,0.0,1012.21,262.2
2019-10-27 10:20,50.63043,-96.9807583333333,10.8,17.3,285,984.43,0.1,77,5.39,0.0,1012.16,262.2
2019-10-27 10:30,50.63043,-96.9807616666667,11.3,18.4,288,984.32,0.0,77,5.37,0.0,1012.04,262.2
2019-10-27 10:40,50.6304333333333,-96.9807616666667,12.2,18.8,289,984.25,0.0,76,5.37,0.0,1011.98,262.2
2019-10-27 10:50,50.6304316666667,-96.9807566666667,10.6,16.8,288,984.26,-0.0,77,5.35,0.0,1011.99,262.2
2019-10-27 11:00,50.6304333333333,-96.9807583333333,11.8,19.3,289,984.18,-0.1,77,5.33,0.0,1011.92,360.0
2019-10-27 11:10,50.6304316666667,-96.9807616666667,10.2,14.9,286,984.39,-0.3,78,5.32,0.0,1012.15,360.0
2019-10-27 11:20,50.6304133333333,-96.9807666666667,9.3,13.9,284,984.62,-0.3,78,5.31,0.0,1012.38,360.0
2019-10-27 11:30,50.630415,-96.98075,8.6,13.7,284,984.76,-0.4,79,5.31,0.0,1012.53,360.0
2019-10-27 11:40,50.63042,-96.9807566666667,9.4,15.2,287,984.91,-0.4,79,5.30,0.0,1012.69,360.0
2019-10-27 11:50,50.6304166666667,-96.9807566666667,8.0,13.7,282,985.15,-0.4,79,5.29,0.0,1012.95,360.0
2019-10-27 12:00,50.63043,-96.9807883333333,9.8,16.6,283,985.17,-0.5,78,5.28,0.0,1012.98,270.0
2019-10-27 12:10,50.63044,-96.9807766666667,9.4,15.1,286,985.24,-0.5,78,5.28,0.0,1013.05,270.0
2019-10-27 12:20,50.6304366666667,-96.98078,7.3,10.9,284,985.35,-0.6,79,5.27,0.0,1013.17,270.0
2019-10-27 12:30,50.6304366666667,-96.9807766666667,6.5,13.9,277,985.42,-0.5,80,5.28,0.0,1013.24,270.0
2019-10-27 12:40,50.630415,-96.98076,7.8,13.9,275,985.39,-0.6,79,5.28,0.0,1013.22,270.0
2019-10-27 12:50,50.6304216666667,-96.98077,7.2,11.3,274,985.36,-0.6,79,5.28,0.0,1013.19,270.0
2019-10-27 13:00,50.6304466666667,-96.9807566666667,6.8,11.5,276,985.37,-0.6,79,5.28,0.0,1013.21,67.7
2019-10-27 13:10,50.6304466666667,-96.98077,5.5,9.2,276,985.48,-0.6,80,5.28,0.0,1013.32,67.7
2019-10-27 13:20,50.6304383333333,-96.9807633333333,5.8,9.6,279,985.55,-0.6,80,5.28,0.0,1013.40,67.7
2019-10-27 13:30,50.6304166666667,-96.9807583333333,5.2,9.1,271,985.76,-0.6,80,5.28,0.0,1013.61,67.7
2019-10-27 13:40,50.6304233333333,-96.9807383333333,7.3,13.9,279,985.75,-0.6,79,5.29,0.0,1013.60,67.7
2019-10-27 13:50,50.6304483333333,-96.98078,5.8,9.4,283,985.85,-0.6,79,5.32,0.0,1013.71,67.7
2019-10-27 14:00,50.6304366666667,-96.98076,6.0,9.8,267,985.91,-0.5,79,5.33,0.0,1013.77,38.0
2019-10-27 14:10,50.6304333333333,-96.980765,7.1,11.1,272,985.91,-0.5,79,5.32,0.0,1013.77,38.0
2019-10-27 14:20,50.63043,-96.9807666666667,6.4,12.2,274,985.93,-0.5,79,5.30,0.0,1013.79,38.0
2019-10-27 14:30,50.6303933333333,-96.980785,6.6,11.5,274,986.01,-0.4,78,5.29,0.0,1013.88,38.0
2019-10-27 14:40,50.63041,-96.9807683333333,8.5,12.6,275,986.07,-0.5,79,5.29,0.0,1013.94,38.0
2019-10-27 14:50,50.6304033333333,-96.9807866666667,8.0,13.0,275,986.09,-0.5,78,5.28,0.0,1013.96,38.0
2019-10-27 15:00,50.6304166666667,-96.9807716666667,8.1,12.9,275,986.17,-0.5,77,5.28,0.0,1014.04,130.6
2019-10-27 15:10,50.630435,-96.980735,7.4,12.1,276,986.24,-0.7,78,5.28,0.0,1014.12,130.6
2019-10-27 15:20,50.6304383333333,-96.9807733333333,7.6,11.6,272,986.21,-0.7,80,5.29,0.0,1014.09,130.6
2019-10-27 15:30,50.6304366666667,-96.9807583333333,8.3,12.7,270,986.20,-0.7,80,5.30,0.0,1014.08,130.6
2019-10-27 15:40,50.630435,-96.9807566666667,7.9,14.3,276,986.25,-0.5,80,5.31,0.0,1014.13,130.6
2019-10-27 15:50,50.630435,-96.9807583333333,8.0,11.4,284,986.19,-0.6,82,5.32,0.0,1014.06,130.6
2019-10-27 16:00,50.6304366666667,-96.9807616666667,8.6,14.6,279,986.04,-0.8,82,5.33,0.0,1013.92,360.0
2019-10-27 16:10,50.6304383333333,-96.98076,9.2,13.8,278,985.95,-0.5,80,5.31,0.0,1013.81,360.0
2019-10-27 16:20,50.6304383333333,-96.9807583333333,9.1,15.5,268,986.00,-0.7,83,5.32,0.0,1013.87,360.0
2019-10-27 16:30,50.6304633333333,-96.9807583333333,9.8,14.9,268,986.04,-0.8,82,5.33,0.0,1013.92,360.0
2019-10-27 16:40,50.6304516666667,-96.9807616666667,10.5,15.9,257,986.11,-0.8,82,5.35,0.0,1013.99,360.0
2019-10-27 16:50,50.6304283333333,-96.9807566666667,10.0,15.7,268,986.02,-0.7,81,5.36,0.0,1013.89,360.0
2019-10-27 17:00,50.6304433333333,-96.9807533333333,11.2,15.3,276,986.05,-0.7,80,5.37,0.0,1013.94,48.3
2019-10-27 17:10,50.63044,-96.9807566666667,10.3,15.6,263,986.11,-0.9,83,5.37,0.0,1014.01,48.3
2019-10-27 17:20,50.63044,-96.9807566666667,10.0,15.2,256,986.16,-1.0,84,5.38,0.0,1014.07,48.3
2019-10-27 17:30,50.6304416666667,-96.9807583333333,9.1,12.9,276,986.06,-0.9,81,5.39,0.0,1013.95,48.3
2019-10-27 17:40,50.6304416666667,-96.98076,10.8,16.8,270,986.04,-0.7,78,5.40,0.0,1013.92,48.3
2019-10-27 17:50,50.6304483333333,-96.980755,9.8,15.8,271,986.01,-0.9,78,5.40,0.0,1013.90,48.3
2019-10-27 18:00,50.63044,-96.9807383333333,10.4,15.8,278,985.90,-0.7,73,5.35,0.0,1013.77,33.4
2019-10-27 18:10,50.6304366666667,-96.9807433333333,10.0,15.4,278,985.93,-0.7,74,5.31,0.0,1013.81,33.4
2019-10-27 18:20,50.630435,-96.9807516666667,10.0,16.0,266,986.04,-0.8,76,5.29,0.0,1013.93,33.4
2019-10-27 18:30,50.6304183333333,-96.9807466666667,9.6,14.7,273,986.00,-0.9,77,5.27,0.0,1013.90,33.4
2019-10-27 18:40,50.6304283333333,-96.9807533333333,9.0,14.6,264,986.07,-1.0,78,5.26,0.0,1013.97,33.4
2019-10-27 18:50,50.63043,-96.9807566666667,8.3,13.0,267,985.99,-1.0,77,5.25,0.0,1013.89,33.4
2019-10-27 19:00,50.6304316666667,-96.98076,10.5,14.6,257,986.01,-0.8,74,5.23,0.0,1013.91,142.0
2019-10-27 19:10,50.6304333333333,-96.9807616666667,10.5,16.1,265,985.93,-0.8,75,5.22,0.0,1013.84,142.0
2019-10-27 19:20,50.630435,-96.9807633333333,9.8,15.0,264,985.89,-0.9,79,5.22,0.0,1013.79,142.0
2019-10-27 19:30,50.630435,-96.980765,8.7,13.7,260,986.00,-1.0,82,5.21,0.0,1013.90,142.0
2019-10-27 19:40,50.630435,-96.980765,8.9,14.6,261,985.96,-1.1,82,5.19,0.0,1013.87,142.0
2019-10-27 19:50,50.6304566666667,-96.98072,7.5,13.3,263,985.97,-1.1,81,5.18,0.0,1013.87,142.0
2019-10-27 20:00,50.63044,-96.980775,8.9,14.1,261,985.97,-1.0,83,5.17,0.0,1013.87,270.0
2019-10-27 20:10,50.6304383333333,-96.98077,8.7,14.5,258,985.98,-1.2,85,5.16,0.0,1013.89,270.0
2019-10-27 20:20,50.63044,-96.980765,9.1,15.9,266,985.90,-1.1,82,5.16,0.0,1013.82,270.0
2019-10-27 20:30,50.6304333333333,-96.9807766666667,8.4,13.0,269,985.91,-1.0,75,5.15,0.0,1013.82,270.0
2019-10-27 20:40,50.63043,-96.9807833333333,9.2,14.4,266,985.96,-0.8,74,5.14,0.0,1013.87,270.0
2019-10-27 20:50,50.6304216666667,-96.9807516666667,9.7,14.9,265,986.02,-0.8,76,5.13,0.0,1013.91,270.0
2019-10-27 21:00,50.6304266666667,-96.980755,10.6,14.9,252,986.09,-1.1,81,5.13,0.0,1014.01,211.1
2019-10-27 21:10,50.6304316666667,-96.9807566666667,9.1,13.5,254,986.09,-1.3,83,5.14,0.0,1014.02,211.1
2019-10-27 21:20,50.6304366666667,-96.980755,9.3,15.2,248,986.17,-1.3,81,5.14,0.0,1014.10,211.1
2019-10-27 21:30,50.6304166666667,-96.9807633333333,8.7,14.5,248,986.22,-1.4,83,5.15,0.0,1014.17,211.1
2019-10-27 21:40,50.6304216666667,-96.9807666666667,9.1,13.7,252,986.18,-1.4,82,5.15,0.0,1014.12,211.1
2019-10-27 21:50,50.630425,-96.980765,9.2,14.4,259,986.10,-1.3,80,5.14,0.0,1014.03,211.1
2019-10-27 22:00,50.6304166666667,-96.9807483333333,11.4,17.7,255,986.10,-1.3,79,5.14,0.0,1014.04,360.0
2019-10-27 22:10,50.6304283333333,-96.9807533333333,10.2,15.4,257,986.11,-1.4,79,5.15,0.0,1014.05,360.0
2019-10-27 22:20,50.6304266666667,-96.9807566666667,8.2,13.6,252,986.18,-1.5,81,5.14,0.0,1014.12,360.0
2019-10-27 22:30,50.630425,-96.9807566666667,9.8,14.9,252,986.22,-1.6,81,5.12,0.0,1014.15,360.0
2019-10-27 22:40,50.6304233333333,-96.9807583333333,7.2,12.8,251,986.19,-1.7,84,5.12,0.0,1014.13,360.0
2019-10-27 22:50,50.6304266666667,-96.9807583333333,7.8,16.4,251,986.25,-1.7,83,5.11,0.0,1014.22,360.0
2019-10-27 23:00,50.6304283333333,-96.98076,9.5,14.0,251,986.28,-1.6,77,5.10,0.0,1014.25,176.8
2019-10-27 23:10,50.6304283333333,-96.98076,9.6,14.6,250,986.26,-1.6,76,5.09,0.0,1014.23,176.8
2019-10-27 23:20,50.6304266666667,-96.9807616666667,10.9,18.4,253,986.39,-1.7,75,5.10,0.0,1014.37,176.8
2019-10-27 23:30,50.6304166666667,-96.9807433333333,9.3,13.9,256,986.49,-1.7,75,5.09,0.0,1014.48,176.8
2019-10-27 23:40,50.6304216666667,-96.9807583333333,8.9,14.0,254,986.51,-1.8,76,5.07,0.0,1014.49,176.8
2019-10-27 23:50,50.63042,-96.98076,8.9,15.3,253,986.53,-1.8,75,5.07,0.0,1014.52,176.8
